FENGYUN 1C DEB, 31381

Orbit data source: Space-Track

FENGYUN 1C DEB, 31381 is space debris in SSO originally from a launch on Mon, 10 May 1999 UTC launched from the Taiyaun Space Center, China (TSC). Fengyun 1C debris stems from the Chinese weather satellite Fengyun-1C, which was intentionally destroyed by a Chinese anti-satellite missile in 2007. This event dramatically increased the amount of space debris, with thousands of trackable fragments posing hazards to satellites and human spaceflight. The Fengyun 1C debris cloud has become a focal point in discussions about space sustainability and the need for international regulations to prevent the creation of new debris.

Loading next visibility...
Identifier
31381, 1999-025BSM
Orbit
SSO
Country
Flag of CNCN / PRC
Related business
Manufacturer
Unknown
Mission
Spacecraft
Bus & Motor
Unknown
Mass
Unknown
Launch date (UTC)
1999-05-10 (27 years ago)
Launch vehicle
Unknown
Launch site
Taiyaun Space Center, China (TSC)
Object type
Payload
Rocket body
Debris
Shape & HBR
Unknown shape, 0.1 m
Radar Cross Section
Small (<0.1 m²)

Expand to show TLE details & history
Last TLE update: 16 hours ago

TLE from 16 hours ago
0 FENGYUN 1C DEB
1 31381U 99025BSM 26236.48413418  .00000568  00000-0  16479-3 0  9992
2 31381  98.4778 321.6683 0195117 351.3295   8.4538 14.37911488 10579
Epoch: 2026-08-24T11:37Z
TLE epoch observation values (Epoch: 2026-08-24T11:37:09.193Z)
Latitude
0.00001°
Longitude
174.61482°
Altitude
630.519 km
Speed
7.616 km/s
True Right ascension
21h 26m 40s
True Declination
0° 00' 00"
Sunlit
Object was in full shadow at epoch
Visualization orbit readout
Latitude
Unknown
Longitude
Unknown
Altitude
Unknown
Speed
Unknown
Apparent Right ascension
Unknown
Apparent Declination
Unknown
Sunlit
N/A
Visualization observer readout
Local Sidereal Time
18:44:25
Azimuth
Unknown
Elevation
Unknown
Doppler factor
Unknown
Orbital elements
Apogee altitude
901.856 km
Perigee altitude
623.203 km
Semi-major axis
7,140.666 km
Eccentricity
0.01951
Inclination
98.4778°
RAAN
321.6683°
Arg. of periapsis
351.3295°
True anomaly
8.79062°
Mean anomaly
8.4538°
Eccentric anomaly
8.62138°
Mean motion
3.59696 °/min
Orbital period
100.08 mins
BSTAR
0.00016479
Loading maneuver chart data...
Computing Atmospheric mass density...
Loading historical data...
Loading historical data...
Loading historical data...
Loading historical data...
Loading historical data...
Loading historical data...
Loading historical data...

Documentation

Showing up to 5 results
|